Simultaneous Nadir Overpasses (SNOs) Predictions

Prediction of SNOs between GOES-16 and AQUA Satellite Orbit:

Table of predicted SNOs for the next 14.0 days since TLE Epoch: 3/6/2021
Index Date Time (GOES-16) GOES-16 Lat,Lon AQUA Lat,Lon Distance(km) Time Diff (sec)
1 03/06/2021 06:23:27 -0.04, -75.20 -0.63, -72.39 319.08 80
2 03/06/2021 18:44:51 0.04, -75.20 -0.46, -77.58 270.51 80
3 03/08/2021 18:35:19 0.03, -75.20 0.13, -74.62 65.66 80
4 03/10/2021 18:23:08 0.02, -75.20 0.79, -71.67 402.74 80
5 03/11/2021 06:44:23 -0.01, -75.20 0.36, -76.81 183.76 80
6 03/13/2021 06:29:32 -0.01, -75.22 -0.31, -73.86 154.38 80
7 03/13/2021 18:50:55 0.01, -75.22 -0.84, -79.04 434.99 80
8 03/15/2021 06:17:20 -0.01, -75.24 -0.93, -70.90 493.14 80
9 03/15/2021 18:38:44 0.01, -75.25 -0.16, -76.09 95.97 80
10 03/17/2021 18:29:12 0.01, -75.28 0.46, -73.13 243.55 80
11 03/18/2021 06:50:27 -0.01, -75.28 0.62, -78.29 341.86 80
